Regional Weather Roundup
Issued by NWS Albany, NY

Home | Current Version | Previous Version | Text Only | Print | Product List | Glossary On
Versions: 1 2 3 4 5 6 7 8 9 10 11 12 13 14 15 16 17 18 19 20 21 22 23 24 25 26 27 28 29 30 31 32 33 34 35 36 37 38 39 40 41 42 43 44 45 46 47 48 49 50
000
ASUS41 KALY 251610
RWRALY

NEW YORK STATE HOURLY WEATHER ROUNDUP
NATIONAL WEATHER SERVICE ALBANY NY
1200 PM EDT THU MAY 25 2017

NOTE: "FAIR" INDICATES FEW OR NO CLOUDS BELOW 12,000 FEET WITH NO
SIGNIFICANT WEATHER AND/OR NO OBSTRUCTIONS TO VISIBILITY.

NYZ032-033-038>043-046>054-057>066-NYZ062>081-082-084-251700-
EAST


CITY           SKY/WX    TMP DP  RH WIND       PRES   REMARKS
ALBANY         CLOUDY    61  48  62 E9G20     29.71F
GLENS FALLS    NOT AVBL
POUGHKEEPSIE   LGT RAIN  58  54  86 E6        29.65S FOG
NEWBURGH       LGT RAIN  55  55 100 E14       29.66S FOG
MONTGOMERY     LGT RAIN  57  55  93 NE10      29.64F
WHITE PLAINS   LGT RAIN  55  53  93 E18G30    29.63F FOG
ISLIP          LGT RAIN  56  56 100 E12       29.64F FOG
NEW YORK CITY  RAIN      57  56  96 NE13      29.62F FOG
CENTRAL PARK   RAIN      57  56  96 E9        29.64F VSB 1
$$

NYZ005>009-017-018-044>046-055-056-251700-
CENTRAL


CITY           SKY/WX    TMP DP  RH WIND       PRES   REMARKS
FULTON         LGT RAIN  56  51  84 E8        29.60S
SYRACUSE       LGT RAIN  55  52  88 E20G29    29.59F
ROME           LGT RAIN  57  51  80 E16G23    29.65F
ELMIRA         LGT RAIN  57  54  89 CALM      29.54F FOG
BINGHAMTON     LGT RAIN  54  53  97 E17       29.55F FOG
MONTICELLO     CLOUDY    52  52 100 E16G22    29.63F
$$

NYZ026>034-041>043-087-251700-
NORTH


CITY           SKY/WX    TMP DP  RH WIND       PRES   REMARKS
WATERTOWN      LGT RAIN  57  53  86 NE10      29.63F FOG
FORT DRUM      NOT AVBL
OGDENSBURG     FAIR      66  55  66 E9        29.68F
MASSENA        CLOUDY    66  54  65 E12       29.73F
SARANAC LAKE   LGT RAIN  58  45  62 E13G18    29.74F
PLATTSBURGH    CLOUDY    63  49  60 S6        29.78F
$$

NYZ001>004-010>016-019>021-085-251700-
WEST


CITY           SKY/WX    TMP DP  RH WIND       PRES   REMARKS
NIAGARA FALLS  RAIN      57  53  86 E8        29.52S FOG
BUFFALO        RAIN      55  52  89 E9        29.52S FOG
DUNKIRK        LGT RAIN  56  55  97 NE6       29.50F
JAMESTOWN      CLOUDY    54  50  87 SE8       29.50S
WELLSVILLE     LGT RAIN  56  53  90 SE6       29.54S FOG
ROCHESTER      HVY RAIN  56  54  93 E9        29.56F FOG
PENN YAN       LGT RAIN  55  52  89 CALM      29.57S FOG
$$

             KEY
       WCI = WIND CHILL INDEX
       VSB = VISIBILITY
       HX  = HEAT INDEX
$$



USA.gov is the U.S. government's official web portal to all federal, state and local government web resources and services.